Time,TemperatureF,DewpointF,PressureIn,WindDirection,WindDirectionDegrees,WindSpeedMPH,WindSpeedGustMPH,Humidity,HourlyPrecipIn,Conditions,Clouds,dailyrainin,SoftwareType,DateUTC
2013-01-12 00:01:00,3.6,-6.5,30.01,West,273,2.0,6.0,62,0.00,,,0.00,meteohub,2013-01-12 07:01:00,
2013-01-12 00:07:00,3.0,-6.7,30.01,SSE,159,0.0,4.0,63,0.00,,,0.00,meteohub,2013-01-12 07:07:00,
2013-01-12 00:12:00,3.9,-5.8,30.01,ENE,71,1.0,4.0,63,0.00,,,0.00,meteohub,2013-01-12 07:12:00,
2013-01-12 00:17:00,3.6,-6.9,30.02,West,275,2.0,4.0,61,0.00,,,0.00,meteohub,2013-01-12 07:17:00,
2013-01-12 00:22:00,2.8,-8.5,30.02,NNW,336,2.0,4.0,58,0.00,,,0.00,meteohub,2013-01-12 07:22:00,
2013-01-12 00:27:00,3.4,-6.3,30.02,NNE,32,2.0,4.0,63,0.00,,,0.00,meteohub,2013-01-12 07:27:00,
2013-01-12 00:32:00,3.7,-7.1,30.02,NNE,13,0.0,4.0,60,0.00,,,0.00,meteohub,2013-01-12 07:32:00,
2013-01-12 00:37:00,2.8,-8.3,30.03,NW,324,1.0,3.0,59,0.00,,,0.00,meteohub,2013-01-12 07:37:00,
2013-01-12 00:42:00,2.8,-7.6,30.03,West,277,1.0,5.0,61,0.00,,,0.00,meteohub,2013-01-12 07:42:00,
2013-01-12 00:47:00,2.8,-7.2,30.03,WNW,295,1.0,5.0,62,0.00,,,0.00,meteohub,2013-01-12 07:47:00,
2013-01-12 00:52:00,2.3,-8.3,30.03,WNW,295,3.0,4.0,60,0.00,,,0.00,meteohub,2013-01-12 07:52:00,
2013-01-12 00:57:00,2.5,-7.6,30.03,WNW,297,2.0,4.0,62,0.00,,,0.00,meteohub,2013-01-12 07:57:00,
2013-01-12 01:02:00,2.5,-7.6,30.03,NNW,329,0.0,4.0,62,0.00,,,0.00,meteohub,2013-01-12 08:02:00,
2013-01-12 01:07:00,3.2,-6.9,30.03,NW,325,1.0,4.0,62,0.00,,,0.00,meteohub,2013-01-12 08:07:00,
2013-01-12 01:12:00,3.4,-7.1,30.04,North,1,0.0,4.0,61,0.00,,,0.00,meteohub,2013-01-12 08:12:00,
2013-01-12 01:17:00,3.7,-6.7,30.04,ENE,72,1.0,2.0,61,0.00,,,0.00,meteohub,2013-01-12 08:17:00,
2013-01-12 01:22:00,3.4,-8.1,30.04,WSW,245,0.0,2.0,58,0.00,,,0.00,meteohub,2013-01-12 08:22:00,
2013-01-12 01:27:00,3.4,-7.1,30.05,South,173,1.0,5.0,61,0.00,,,0.00,meteohub,2013-01-12 08:27:00,
2013-01-12 01:32:00,3.6,-6.9,30.05,WNW,295,1.0,5.0,61,0.00,,,0.00,meteohub,2013-01-12 08:32:00,
2013-01-12 01:37:00,2.7,-7.8,30.05,ENE,78,0.0,5.0,61,0.00,,,0.00,meteohub,2013-01-12 08:37:00,
2013-01-12 01:42:00,2.7,-8.3,30.05,SW,233,1.0,2.0,59,0.00,,,0.00,meteohub,2013-01-12 08:42:00,
2013-01-12 01:47:00,2.7,-7.8,30.05,West,266,1.0,4.0,61,0.00,,,0.00,meteohub,2013-01-12 08:47:00,
2013-01-12 01:52:00,2.1,-8.5,30.05,SSE,167,0.0,6.0,60,0.00,,,0.00,meteohub,2013-01-12 08:52:00,
2013-01-12 01:57:00,2.7,-8.1,30.05,NNE,19,0.0,6.0,60,0.00,,,0.00,meteohub,2013-01-12 08:57:00,
2013-01-12 02:02:00,3.0,-8.5,30.05,NE,56,0.0,6.0,58,0.00,,,0.00,meteohub,2013-01-12 09:02:00,
2013-01-12 02:07:00,2.7,-8.7,30.05,SW,217,1.0,3.0,58,0.00,,,0.00,meteohub,2013-01-12 09:07:00,
2013-01-12 02:12:00,2.3,-8.3,30.05,SSW,204,0.0,1.0,60,0.00,,,0.00,meteohub,2013-01-12 09:12:00,
2013-01-12 02:17:00,2.1,-8.0,30.05,South,176,2.0,2.0,62,0.00,,,0.00,meteohub,2013-01-12 09:17:00,
2013-01-12 02:22:00,2.5,-7.6,30.06,West,271,2.0,2.0,62,0.00,,,0.00,meteohub,2013-01-12 09:22:00,
2013-01-12 02:27:00,2.3,-8.3,30.05,West,280,2.0,2.0,60,0.00,,,0.00,meteohub,2013-01-12 09:27:00,
2013-01-12 02:32:00,1.6,-9.8,30.05,WSW,258,5.0,5.0,58,0.00,,,0.00,meteohub,2013-01-12 09:32:00,
2013-01-12 02:37:00,2.7,-8.3,30.05,West,281,1.0,6.0,59,0.00,,,0.00,meteohub,2013-01-12 09:37:00,
2013-01-12 02:42:00,3.7,-8.5,30.05,WSW,250,4.0,6.0,56,0.00,,,0.00,meteohub,2013-01-12 09:42:00,
2013-01-12 02:47:00,3.6,-9.0,30.05,WSW,249,3.0,6.0,55,0.00,,,0.00,meteohub,2013-01-12 09:47:00,
2013-01-12 02:52:00,4.5,-8.5,30.05,SW,229,3.0,6.0,54,0.00,,,0.00,meteohub,2013-01-12 09:52:00,
2013-01-12 02:57:00,4.6,-8.7,30.05,SW,215,3.0,6.0,53,0.00,,,0.00,meteohub,2013-01-12 09:57:00,
2013-01-12 03:03:00,5.2,-9.8,30.05,SSE,153,1.0,5.0,49,0.00,,,0.00,meteohub,2013-01-12 10:03:00,
2013-01-12 03:08:00,3.7,-10.8,30.06,East,96,0.0,5.0,50,0.00,,,0.00,meteohub,2013-01-12 10:08:00,
2013-01-12 03:14:00,1.8,-11.4,30.05,NW,326,3.0,5.0,53,0.00,,,0.00,meteohub,2013-01-12 10:14:00,
2013-01-12 03:19:00,2.5,-12.3,30.05,NNW,328,3.0,6.0,49,0.00,,,0.00,meteohub,2013-01-12 10:19:00,
2013-01-12 03:25:00,0.9,-13.9,30.05,NNW,327,7.0,7.0,49,0.00,,,0.00,meteohub,2013-01-12 10:25:00,
2013-01-12 03:30:00,-0.6,-14.4,30.05,NNW,327,4.0,8.0,51,0.00,,,0.00,meteohub,2013-01-12 10:30:00,
2013-01-12 03:36:00,-1.5,-13.7,30.06,North,349,4.0,8.0,55,0.00,,,0.00,meteohub,2013-01-12 10:36:00,
2013-01-12 03:41:00,-1.8,-12.6,30.06,NNW,328,4.0,8.0,59,0.00,,,0.00,meteohub,2013-01-12 10:41:00,
2013-01-12 03:47:00,-1.7,-11.6,30.06,NW,325,2.0,6.0,62,0.00,,,0.00,meteohub,2013-01-12 10:47:00,
2013-01-12 03:52:00,-1.7,-11.7,30.06,NW,309,0.0,7.0,61,0.00,,,0.00,meteohub,2013-01-12 10:52:00,
2013-01-12 03:57:00,-1.7,-11.7,30.05,WNW,287,4.0,7.0,61,0.00,,,0.00,meteohub,2013-01-12 10:57:00,
2013-01-12 04:02:00,-1.3,-11.2,30.05,NW,319,1.0,6.0,62,0.00,,,0.00,meteohub,2013-01-12 11:02:00,
2013-01-12 04:07:00,-1.1,-11.4,30.06,WNW,287,0.0,6.0,61,0.00,,,0.00,meteohub,2013-01-12 11:07:00,
2013-01-12 04:12:00,-0.8,-11.4,30.05,NW,323,1.0,6.0,60,0.00,,,0.00,meteohub,2013-01-12 11:12:00,
2013-01-12 04:17:00,-1.1,-12.3,30.05,NE,34,1.0,4.0,58,0.00,,,0.00,meteohub,2013-01-12 11:17:00,
2013-01-12 04:22:00,-1.3,-12.8,30.06,NNE,27,0.0,3.0,57,0.00,,,0.00,meteohub,2013-01-12 11:22:00,
2013-01-12 04:27:00,-0.6,-12.1,30.06,NE,51,3.0,3.0,57,0.00,,,0.00,meteohub,2013-01-12 11:27:00,
2013-01-12 04:32:00,-0.6,-12.8,30.06,West,279,0.0,4.0,55,0.00,,,0.00,meteohub,2013-01-12 11:32:00,
2013-01-12 04:37:00,-0.2,-12.5,30.06,WNW,290,2.0,8.0,55,0.00,,,0.00,meteohub,2013-01-12 11:37:00,
2013-01-12 04:42:00,0.0,-12.8,30.06,West,259,1.0,8.0,54,0.00,,,0.00,meteohub,2013-01-12 11:42:00,
2013-01-12 04:47:00,0.3,-12.5,30.06,West,281,2.0,3.0,54,0.00,,,0.00,meteohub,2013-01-12 11:47:00,
2013-01-12 04:52:00,0.7,-12.1,30.06,WNW,285,0.0,3.0,54,0.00,,,0.00,meteohub,2013-01-12 11:52:00,
2013-01-12 04:57:00,0.9,-12.3,30.07,WNW,284,0.0,3.0,53,0.00,,,0.00,meteohub,2013-01-12 11:57:00,
2013-01-12 05:02:00,0.9,-11.6,30.07,ENE,70,1.0,2.0,55,0.00,,,0.00,meteohub,2013-01-12 12:02:00,
2013-01-12 05:07:00,0.9,-11.9,30.07,NNE,27,0.0,2.0,54,0.00,,,0.00,meteohub,2013-01-12 12:07:00,
2013-01-12 05:12:00,0.5,-12.3,30.07,NW,325,0.0,2.0,54,0.00,,,0.00,meteohub,2013-01-12 12:12:00,
2013-01-12 05:17:00,0.3,-12.5,30.08,North,6,0.0,2.0,54,0.00,,,0.00,meteohub,2013-01-12 12:17:00,
2013-01-12 05:22:00,0.0,-12.8,30.09,NW,304,1.0,1.0,54,0.00,,,0.00,meteohub,2013-01-12 12:22:00,
2013-01-12 05:27:00,-0.9,-13.2,30.09,WNW,302,0.0,1.0,55,0.00,,,0.00,meteohub,2013-01-12 12:27:00,
2013-01-12 05:32:00,-0.8,-12.6,30.09,WNW,295,1.0,1.0,56,0.00,,,0.00,meteohub,2013-01-12 12:32:00,
2013-01-12 05:37:00,-0.6,-12.8,30.10,NW,315,1.0,1.0,55,0.00,,,0.00,meteohub,2013-01-12 12:37:00,
2013-01-12 05:42:00,-0.8,-13.4,30.10,North,8,1.0,3.0,54,0.00,,,0.00,meteohub,2013-01-12 12:42:00,
2013-01-12 05:47:00,-0.8,-13.4,30.10,NW,306,0.0,3.0,54,0.00,,,0.00,meteohub,2013-01-12 12:47:00,
2013-01-12 05:52:00,-0.8,-13.4,30.11,WNW,299,1.0,2.0,54,0.00,,,0.00,meteohub,2013-01-12 12:52:00,
2013-01-12 05:57:00,-0.9,-13.5,30.11,NW,305,1.0,2.0,54,0.00,,,0.00,meteohub,2013-01-12 12:57:00,
2013-01-12 06:02:00,-1.1,-13.7,30.12,WNW,301,1.0,2.0,54,0.00,,,0.00,meteohub,2013-01-12 13:02:00,
2013-01-12 06:07:00,-1.8,-14.4,30.12,West,274,3.0,4.0,54,0.00,,,0.00,meteohub,2013-01-12 13:07:00,
2013-01-12 06:12:00,-1.8,-13.7,30.13,West,276,2.0,4.0,56,0.00,,,0.00,meteohub,2013-01-12 13:12:00,
2013-01-12 06:17:00,-1.5,-13.7,30.13,West,264,2.0,4.0,55,0.00,,,0.00,meteohub,2013-01-12 13:17:00,
2013-01-12 06:22:00,-1.8,-13.7,30.13,West,281,2.0,4.0,56,0.00,,,0.00,meteohub,2013-01-12 13:22:00,
2013-01-12 06:27:00,-1.1,-12.6,30.14,WNW,291,0.0,4.0,57,0.00,,,0.00,meteohub,2013-01-12 13:27:00,
2013-01-12 06:32:00,-0.4,-12.6,30.14,West,271,1.0,4.0,55,0.00,,,0.00,meteohub,2013-01-12 13:32:00,
2013-01-12 06:37:00,-0.6,-12.8,30.15,SE,131,1.0,4.0,55,0.00,,,0.00,meteohub,2013-01-12 13:37:00,
2013-01-12 06:42:00,-0.9,-13.2,30.15,East,101,1.0,2.0,55,0.00,,,0.00,meteohub,2013-01-12 13:42:00,
2013-01-12 06:47:00,-2.0,-14.3,30.15,East,100,0.0,2.0,55,0.00,,,0.00,meteohub,2013-01-12 13:47:00,
2013-01-12 06:52:00,-2.7,-14.3,30.16,East,100,0.0,2.0,57,0.00,,,0.00,meteohub,2013-01-12 13:52:00,
2013-01-12 06:57:00,-3.3,-15.0,30.16,WNW,303,2.0,2.0,56,0.00,,,0.00,meteohub,2013-01-12 13:57:00,
2013-01-12 07:02:00,-4.5,-15.2,30.17,NW,313,2.0,3.0,59,0.00,,,0.00,meteohub,2013-01-12 14:02:00,
2013-01-12 07:07:00,-6.0,-17.0,30.17,WNW,299,2.0,3.0,58,0.00,,,0.00,meteohub,2013-01-12 14:07:00,
2013-01-12 07:12:00,-7.2,-17.5,30.17,NNW,334,1.0,3.0,60,0.00,,,0.00,meteohub,2013-01-12 14:12:00,
2013-01-12 07:17:00,-8.1,-17.7,30.19,NW,304,2.0,4.0,62,0.00,,,0.00,meteohub,2013-01-12 14:17:00,
2013-01-12 07:22:00,-8.0,-17.0,30.19,NW,325,2.0,4.0,64,0.00,,,0.00,meteohub,2013-01-12 14:22:00,
2013-01-12 07:27:00,-5.6,-14.3,30.19,NW,316,2.0,4.0,65,0.00,,,0.00,meteohub,2013-01-12 14:27:00,
2013-01-12 07:32:00,-4.7,-14.8,30.19,NW,321,2.0,5.0,61,0.00,,,0.00,meteohub,2013-01-12 14:32:00,
2013-01-12 07:37:00,-5.4,-15.7,30.20,NNW,329,3.0,5.0,60,0.00,,,0.00,meteohub,2013-01-12 14:37:00,
2013-01-12 07:42:00,-5.6,-15.3,30.20,NNW,338,3.0,5.0,62,0.00,,,0.00,meteohub,2013-01-12 14:42:00,
2013-01-12 07:47:00,-5.6,-15.5,30.20,NNW,327,6.0,6.0,61,0.00,,,0.00,meteohub,2013-01-12 14:47:00,
2013-01-12 07:52:00,-5.4,-15.3,30.20,NW,325,8.0,8.0,61,0.00,,,0.00,meteohub,2013-01-12 14:52:00,
2013-01-12 07:57:00,-5.1,-14.8,30.21,NW,326,8.0,8.0,62,0.00,,,0.00,meteohub,2013-01-12 14:57:00,
2013-01-12 08:02:00,-4.5,-14.3,30.21,NW,323,5.0,9.0,62,0.00,,,0.00,meteohub,2013-01-12 15:02:00,
2013-01-12 08:07:00,-4.4,-14.1,30.22,NNW,338,5.0,9.0,62,0.00,,,0.00,meteohub,2013-01-12 15:07:00,
2013-01-12 08:12:00,-3.8,-13.9,30.22,NW,321,4.0,9.0,61,0.00,,,0.00,meteohub,2013-01-12 15:12:00,
2013-01-12 08:17:00,-3.5,-13.5,30.22,NW,326,5.0,8.0,61,0.00,,,0.00,meteohub,2013-01-12 15:17:00,
2013-01-12 08:22:00,-3.1,-13.5,30.22,NW,315,3.0,8.0,60,0.00,,,0.00,meteohub,2013-01-12 15:22:00,
2013-01-12 08:27:00,-2.7,-13.5,30.23,NW,325,4.0,8.0,59,0.00,,,0.00,meteohub,2013-01-12 15:27:00,
2013-01-12 08:32:00,-2.4,-13.5,30.23,NW,319,5.0,7.0,58,0.00,,,0.00,meteohub,2013-01-12 15:32:00,
2013-01-12 08:37:00,-2.0,-13.2,30.23,NW,310,5.0,8.0,58,0.00,,,0.00,meteohub,2013-01-12 15:37:00,
2013-01-12 08:42:00,-1.8,-13.4,30.23,NW,319,6.0,8.0,57,0.00,,,0.00,meteohub,2013-01-12 15:42:00,
2013-01-12 08:47:00,-1.8,-13.7,30.24,NW,319,3.0,8.0,56,0.00,,,0.00,meteohub,2013-01-12 15:47:00,
2013-01-12 08:52:00,-2.4,-14.3,30.24,NNW,327,6.0,8.0,56,0.00,,,0.00,meteohub,2013-01-12 15:52:00,
2013-01-12 08:57:00,-2.6,-14.1,30.24,NW,321,7.0,8.0,57,0.00,,,0.00,meteohub,2013-01-12 15:57:00,
2013-01-12 09:02:00,-2.6,-14.1,30.24,NNW,334,7.0,10.0,57,0.00,,,0.00,meteohub,2013-01-12 16:02:00,
2013-01-12 09:07:00,-2.4,-13.9,30.25,NW,318,6.0,10.0,57,0.00,,,0.00,meteohub,2013-01-12 16:07:00,
2013-01-12 09:12:00,-2.4,-14.3,30.25,NW,321,3.0,10.0,56,0.00,,,0.00,meteohub,2013-01-12 16:12:00,
2013-01-12 09:17:00,-1.8,-13.7,30.25,NNE,13,4.0,8.0,56,0.00,,,0.00,meteohub,2013-01-12 16:17:00,
2013-01-12 09:22:00,-1.5,-13.4,30.25,NNW,328,3.0,8.0,56,0.00,,,0.00,meteohub,2013-01-12 16:22:00,
2013-01-12 09:27:00,-0.8,-13.0,30.26,NNW,332,3.0,8.0,55,0.00,,,0.00,meteohub,2013-01-12 16:27:00,
2013-01-12 09:32:00,-0.2,-13.4,30.26,NNW,327,6.0,6.0,53,0.00,,,0.00,meteohub,2013-01-12 16:32:00,
2013-01-12 09:37:00,0.3,-13.2,30.26,North,353,3.0,7.0,52,0.00,,,0.00,meteohub,2013-01-12 16:37:00,
2013-01-12 09:42:00,1.0,-13.2,30.26,NW,321,6.0,7.0,50,0.00,,,0.00,meteohub,2013-01-12 16:42:00,
2013-01-12 09:47:00,1.2,-13.2,30.26,NW,321,3.0,8.0,50,0.00,,,0.00,meteohub,2013-01-12 16:47:00,
2013-01-12 09:52:00,1.8,-13.0,30.26,NNW,332,5.0,8.0,49,0.00,,,0.00,meteohub,2013-01-12 16:52:00,
2013-01-12 09:57:00,1.8,-13.0,30.26,NW,325,5.0,8.0,49,0.00,,,0.00,meteohub,2013-01-12 16:57:00,
2013-01-12 10:02:00,1.9,-12.8,30.26,NNW,329,0.0,7.0,49,0.00,,,0.00,meteohub,2013-01-12 17:02:00,
2013-01-12 10:07:00,2.5,-12.3,30.26,NW,324,2.0,6.0,49,0.00,,,0.00,meteohub,2013-01-12 17:07:00,
2013-01-12 10:12:00,3.0,-12.6,30.26,NNW,328,2.0,6.0,47,0.00,,,0.00,meteohub,2013-01-12 17:12:00,
2013-01-12 10:17:00,3.4,-12.3,30.26,NNE,14,2.0,5.0,47,0.00,,,0.00,meteohub,2013-01-12 17:17:00,
2013-01-12 10:22:00,3.7,-12.5,30.26,NE,50,4.0,5.0,46,0.00,,,0.00,meteohub,2013-01-12 17:22:00,
2013-01-12 10:27:00,3.9,-12.3,30.26,NNE,26,1.0,5.0,46,0.00,,,0.00,meteohub,2013-01-12 17:27:00,
2013-01-12 10:32:00,4.6,-11.2,30.26,ENE,70,2.0,5.0,47,0.00,,,0.00,meteohub,2013-01-12 17:32:00,
2013-01-12 10:37:00,4.8,-11.9,30.26,NNE,30,2.0,5.0,45,0.00,,,0.00,meteohub,2013-01-12 17:37:00,
2013-01-12 10:42:00,5.2,-11.0,30.26,East,93,2.0,5.0,46,0.00,,,0.00,meteohub,2013-01-12 17:42:00,
2013-01-12 10:47:00,5.7,-11.6,30.26,NE,39,0.0,5.0,44,0.00,,,0.00,meteohub,2013-01-12 17:47:00,
2013-01-12 10:52:00,6.3,-11.0,30.26,ESE,123,0.0,5.0,44,0.00,,,0.00,meteohub,2013-01-12 17:52:00,
2013-01-12 10:57:00,6.6,-12.1,30.26,ESE,115,3.0,5.0,41,0.00,,,0.00,meteohub,2013-01-12 17:57:00,
2013-01-12 11:02:00,7.2,-11.2,30.26,NNE,27,1.0,5.0,42,0.00,,,0.00,meteohub,2013-01-12 18:02:00,
2013-01-12 11:07:00,7.7,-11.0,30.25,SE,136,3.0,5.0,41,0.00,,,0.00,meteohub,2013-01-12 18:07:00,
2013-01-12 11:12:00,7.9,-11.9,30.25,SE,136,1.0,5.0,39,0.00,,,0.00,meteohub,2013-01-12 18:12:00,
2013-01-12 11:17:00,8.1,-12.8,30.25,NNE,19,1.0,5.0,37,0.00,,,0.00,meteohub,2013-01-12 18:17:00,
2013-01-12 11:22:00,8.1,-11.7,30.25,NE,48,1.0,5.0,39,0.00,,,0.00,meteohub,2013-01-12 18:22:00,
2013-01-12 11:27:00,8.4,-11.9,30.24,ESE,103,3.0,5.0,38,0.00,,,0.00,meteohub,2013-01-12 18:27:00,
2013-01-12 11:32:00,8.4,-11.9,30.24,ENE,64,2.0,7.0,38,0.00,,,0.00,meteohub,2013-01-12 18:32:00,
2013-01-12 11:37:00,8.8,-11.7,30.23,East,91,2.0,7.0,38,0.00,,,0.00,meteohub,2013-01-12 18:37:00,
2013-01-12 11:42:00,9.1,-10.8,30.23,SE,128,2.0,7.0,39,0.00,,,0.00,meteohub,2013-01-12 18:42:00,
2013-01-12 11:47:00,9.5,-11.0,30.23,ESE,120,1.0,6.0,38,0.00,,,0.00,meteohub,2013-01-12 18:47:00,
2013-01-12 11:52:00,9.3,-11.2,30.22,NE,34,4.0,6.0,38,0.00,,,0.00,meteohub,2013-01-12 18:52:00,
2013-01-12 11:57:00,9.1,-11.9,30.22,ENE,72,4.0,6.0,37,0.00,,,0.00,meteohub,2013-01-12 18:57:00,
2013-01-12 12:02:00,9.1,-11.4,30.22,East,101,3.0,7.0,38,0.00,,,0.00,meteohub,2013-01-12 19:02:00,
2013-01-12 12:07:00,9.3,-11.7,30.22,NE,48,3.0,7.0,37,0.00,,,0.00,meteohub,2013-01-12 19:07:00,
2013-01-12 12:12:00,9.7,-10.8,30.21,South,180,1.0,7.0,38,0.00,,,0.00,meteohub,2013-01-12 19:12:00,
2013-01-12 12:17:00,10.0,-11.0,30.21,NNW,345,1.0,6.0,37,0.00,,,0.00,meteohub,2013-01-12 19:17:00,
2013-01-12 12:22:00,10.6,-11.2,30.21,NE,37,2.0,4.0,36,0.00,,,0.00,meteohub,2013-01-12 19:22:00,
2013-01-12 12:27:00,10.9,-10.8,30.21,East,88,1.0,4.0,36,0.00,,,0.00,meteohub,2013-01-12 19:27:00,
2013-01-12 12:32:00,11.7,-10.1,30.20,ENE,63,3.0,4.0,36,0.00,,,0.00,meteohub,2013-01-12 19:32:00,
2013-01-12 12:37:00,11.3,-10.5,30.19,East,97,4.0,6.0,36,0.00,,,0.00,meteohub,2013-01-12 19:37:00,
2013-01-12 12:42:00,11.1,-10.1,30.19,ESE,119,0.0,6.0,37,0.00,,,0.00,meteohub,2013-01-12 19:42:00,
2013-01-12 12:47:00,11.8,-9.9,30.19,NW,316,0.0,6.0,36,0.00,,,0.00,meteohub,2013-01-12 19:47:00,
2013-01-12 12:52:00,12.2,-9.6,30.19,NW,306,1.0,6.0,36,0.00,,,0.00,meteohub,2013-01-12 19:52:00,
2013-01-12 12:57:00,10.9,-10.3,30.19,WNW,298,3.0,8.0,37,0.00,,,0.00,meteohub,2013-01-12 19:57:00,
2013-01-12 13:02:00,10.0,-9.9,30.19,NNW,331,1.0,8.0,39,0.00,,,0.00,meteohub,2013-01-12 20:02:00,
2013-01-12 13:07:00,9.9,-9.6,30.19,WNW,293,1.0,5.0,40,0.00,,,0.00,meteohub,2013-01-12 20:07:00,
2013-01-12 13:12:00,9.5,-9.9,30.19,NW,323,0.0,4.0,40,0.00,,,0.00,meteohub,2013-01-12 20:12:00,
2013-01-12 13:17:00,9.3,-10.1,30.19,NNW,328,0.0,3.0,40,0.00,,,0.00,meteohub,2013-01-12 20:17:00,
2013-01-12 13:22:00,9.5,-9.9,30.19,NE,53,0.0,2.0,40,0.00,,,0.00,meteohub,2013-01-12 20:22:00,
2013-01-12 13:27:00,9.7,-9.8,30.19,NE,51,0.0,2.0,40,0.00,,,0.00,meteohub,2013-01-12 20:27:00,
2013-01-12 13:32:00,9.9,-10.1,30.19,NW,311,0.0,2.0,39,0.00,,,0.00,meteohub,2013-01-12 20:32:00,
2013-01-12 13:37:00,9.9,-9.6,30.19,NW,326,0.0,2.0,40,0.00,,,0.00,meteohub,2013-01-12 20:37:00,
2013-01-12 13:42:00,9.9,-9.6,30.19,West,269,0.0,2.0,40,0.00,,,0.00,meteohub,2013-01-12 20:42:00,
2013-01-12 13:47:00,10.2,-9.4,30.19,NNW,329,1.0,2.0,40,0.00,,,0.00,meteohub,2013-01-12 20:47:00,
2013-01-12 13:52:00,10.2,-9.4,30.19,NNW,328,0.0,1.0,40,0.00,,,0.00,meteohub,2013-01-12 20:52:00,
2013-01-12 13:57:00,10.9,-7.6,30.19,SE,127,1.0,2.0,42,0.00,,,0.00,meteohub,2013-01-12 20:57:00,
2013-01-12 14:02:00,11.3,-7.8,30.19,East,99,2.0,7.0,41,0.00,,,0.00,meteohub,2013-01-12 21:02:00,
2013-01-12 14:07:00,11.5,-7.2,30.19,SE,138,3.0,8.0,42,0.00,,,0.00,meteohub,2013-01-12 21:07:00,
2013-01-12 14:12:00,11.7,-7.1,30.19,SSE,151,1.0,8.0,42,0.00,,,0.00,meteohub,2013-01-12 21:12:00,
2013-01-12 14:17:00,11.7,-8.0,30.19,ENE,73,2.0,8.0,40,0.00,,,0.00,meteohub,2013-01-12 21:17:00,
2013-01-12 14:22:00,11.7,-8.5,30.19,SSE,149,2.0,6.0,39,0.00,,,0.00,meteohub,2013-01-12 21:22:00,
2013-01-12 14:28:00,11.8,-8.9,30.19,SE,128,1.0,5.0,38,0.00,,,0.00,meteohub,2013-01-12 21:28:00,
2013-01-12 14:33:00,11.8,-8.9,30.19,East,82,0.0,6.0,38,0.00,,,0.00,meteohub,2013-01-12 21:33:00,
2013-01-12 14:39:00,11.7,-9.6,30.20,North,3,1.0,6.0,37,0.00,,,0.00,meteohub,2013-01-12 21:39:00,
2013-01-12 14:44:00,11.7,-9.6,30.20,NNE,19,3.0,10.0,37,0.00,,,0.00,meteohub,2013-01-12 21:44:00,
2013-01-12 14:50:00,11.7,-9.6,30.20,North,4,0.0,10.0,37,0.00,,,0.00,meteohub,2013-01-12 21:50:00,
2013-01-12 14:55:00,11.7,-9.0,30.20,NE,37,3.0,4.0,38,0.00,,,0.00,meteohub,2013-01-12 21:55:00,
2013-01-12 15:01:00,11.7,-8.5,30.20,East,99,1.0,4.0,39,0.00,,,0.00,meteohub,2013-01-12 22:01:00,
2013-01-12 15:06:00,11.8,-8.9,30.20,ENE,60,2.0,4.0,38,0.00,,,0.00,meteohub,2013-01-12 22:06:00,
2013-01-12 15:12:00,11.5,-8.7,30.20,NW,321,7.0,7.0,39,0.00,,,0.00,meteohub,2013-01-12 22:12:00,
2013-01-12 15:17:00,10.9,-8.1,30.20,NNW,335,3.0,8.0,41,0.00,,,0.00,meteohub,2013-01-12 22:17:00,
2013-01-12 15:22:00,10.9,-7.6,30.20,NNE,22,2.0,8.0,42,0.00,,,0.00,meteohub,2013-01-12 22:22:00,
2013-01-12 15:27:00,11.1,-7.4,30.21,NNW,343,2.0,8.0,42,0.00,,,0.00,meteohub,2013-01-12 22:27:00,
2013-01-12 15:33:00,11.7,-8.0,30.21,North,358,3.0,5.0,40,0.00,,,0.00,meteohub,2013-01-12 22:33:00,
2013-01-12 15:38:00,12.2,-8.0,30.21,NNW,331,3.0,5.0,39,0.00,,,0.00,meteohub,2013-01-12 22:38:00,
2013-01-12 15:44:00,12.4,-8.9,30.21,NNW,338,5.0,5.0,37,0.00,,,0.00,meteohub,2013-01-12 22:44:00,
2013-01-12 15:49:00,12.6,-8.3,30.21,NW,323,1.0,7.0,38,0.00,,,0.00,meteohub,2013-01-12 22:49:00,
2013-01-12 15:55:00,12.7,-9.2,30.21,NNW,345,6.0,7.0,36,0.00,,,0.00,meteohub,2013-01-12 22:55:00,
2013-01-12 16:00:00,12.7,-8.7,30.21,NNW,332,6.0,9.0,37,0.00,,,0.00,meteohub,2013-01-12 23:00:00,
2013-01-12 16:06:00,12.4,-7.4,30.22,NNW,330,4.0,9.0,40,0.00,,,0.00,meteohub,2013-01-12 23:06:00,
2013-01-12 16:11:00,12.2,-7.1,30.22,NW,309,4.0,9.0,41,0.00,,,0.00,meteohub,2013-01-12 23:11:00,
2013-01-12 16:17:00,12.0,-7.6,30.22,NW,311,4.0,9.0,40,0.00,,,0.00,meteohub,2013-01-12 23:17:00,
2013-01-12 16:22:00,11.8,-8.3,30.22,NW,324,4.0,9.0,39,0.00,,,0.00,meteohub,2013-01-12 23:22:00,
2013-01-12 16:27:00,11.1,-8.5,30.22,NW,312,2.0,9.0,40,0.00,,,0.00,meteohub,2013-01-12 23:27:00,
2013-01-12 16:32:00,10.9,-9.2,30.22,NNW,335,5.0,8.0,39,0.00,,,0.00,meteohub,2013-01-12 23:32:00,
2013-01-12 16:37:00,10.2,-9.4,30.22,NW,307,3.0,8.0,40,0.00,,,0.00,meteohub,2013-01-12 23:37:00,
2013-01-12 16:42:00,9.9,-9.6,30.22,West,274,7.0,8.0,40,0.00,,,0.00,meteohub,2013-01-12 23:42:00,
2013-01-12 16:47:00,9.1,-9.8,30.22,WNW,300,3.0,10.0,41,0.00,,,0.00,meteohub,2013-01-12 23:47:00,
2013-01-12 16:52:00,9.0,-12.6,30.22,NW,315,5.0,10.0,36,0.00,,,0.00,meteohub,2013-01-12 23:52:00,
2013-01-12 16:57:00,8.8,-11.7,30.22,NW,319,5.0,12.0,38,0.00,,,0.00,meteohub,2013-01-12 23:57:00,
2013-01-12 17:02:00,8.4,-11.4,30.23,NNW,332,4.0,12.0,39,0.00,,,0.00,meteohub,2013-01-13 00:02:00,
2013-01-12 17:07:00,8.1,-11.2,30.23,NW,323,3.0,12.0,40,0.00,,,0.00,meteohub,2013-01-13 00:07:00,
2013-01-12 17:12:00,7.5,-12.8,30.23,NW,319,5.0,12.0,38,0.00,,,0.00,meteohub,2013-01-13 00:12:00,
2013-01-12 17:18:00,7.5,-13.4,30.23,NNW,328,2.0,12.0,37,0.00,,,0.00,meteohub,2013-01-13 00:18:00,
2013-01-12 17:23:00,7.3,-14.1,30.24,NW,312,3.0,12.0,36,0.00,,,0.00,meteohub,2013-01-13 00:23:00,
2013-01-12 17:29:00,7.0,-14.4,30.24,West,260,5.0,8.0,36,0.00,,,0.00,meteohub,2013-01-13 00:29:00,
2013-01-12 17:34:00,6.6,-14.6,30.24,West,277,3.0,5.0,36,0.00,,,0.00,meteohub,2013-01-13 00:34:00,
2013-01-12 17:40:00,7.0,-15.0,30.25,SW,231,1.0,6.0,35,0.00,,,0.00,meteohub,2013-01-13 00:40:00,
2013-01-12 17:45:00,6.3,-13.4,30.25,SSE,159,4.0,7.0,39,0.00,,,0.00,meteohub,2013-01-13 00:45:00,
2013-01-12 17:51:00,5.5,-12.6,30.25,SSE,158,2.0,7.0,42,0.00,,,0.00,meteohub,2013-01-13 00:51:00,
2013-01-12 17:56:00,5.2,-11.9,30.25,SE,145,1.0,7.0,44,0.00,,,0.00,meteohub,2013-01-13 00:56:00,
2013-01-12 18:02:00,5.4,-11.7,30.25,SE,141,2.0,6.0,44,0.00,,,0.00,meteohub,2013-01-13 01:02:00,
2013-01-12 18:07:00,5.2,-11.9,30.26,SE,145,1.0,3.0,44,0.00,,,0.00,meteohub,2013-01-13 01:07:00,
2013-01-12 18:12:00,4.6,-12.5,30.26,SSE,167,2.0,3.0,44,0.00,,,0.00,meteohub,2013-01-13 01:12:00,
2013-01-12 18:17:00,4.5,-12.3,30.26,ESE,123,2.0,3.0,45,0.00,,,0.00,meteohub,2013-01-13 01:17:00,
2013-01-12 18:22:00,4.6,-12.1,30.26,ESE,119,3.0,3.0,45,0.00,,,0.00,meteohub,2013-01-13 01:22:00,
2013-01-12 18:27:00,4.6,-12.1,30.26,SE,134,1.0,4.0,45,0.00,,,0.00,meteohub,2013-01-13 01:27:00,
2013-01-12 18:32:00,4.5,-12.3,30.27,ESE,117,2.0,4.0,45,0.00,,,0.00,meteohub,2013-01-13 01:32:00,
2013-01-12 18:37:00,3.9,-12.3,30.27,ESE,120,0.0,4.0,46,0.00,,,0.00,meteohub,2013-01-13 01:37:00,
2013-01-12 18:42:00,3.4,-12.8,30.27,WNW,298,0.0,3.0,46,0.00,,,0.00,meteohub,2013-01-13 01:42:00,
2013-01-12 18:47:00,2.7,-13.0,30.27,SW,233,1.0,2.0,47,0.00,,,0.00,meteohub,2013-01-13 01:47:00,
2013-01-12 18:52:00,2.8,-12.8,30.28,SSE,162,0.0,2.0,47,0.00,,,0.00,meteohub,2013-01-13 01:52:00,
2013-01-12 18:57:00,2.7,-13.0,30.28,South,190,0.0,2.0,47,0.00,,,0.00,meteohub,2013-01-13 01:57:00,
2013-01-12 19:02:00,2.7,-12.6,30.28,West,281,2.0,2.0,48,0.00,,,0.00,meteohub,2013-01-13 02:02:00,
2013-01-12 19:07:00,2.8,-12.5,30.28,SSW,193,0.0,2.0,48,0.00,,,0.00,meteohub,2013-01-13 02:07:00,
2013-01-12 19:12:00,3.0,-12.6,30.28,SE,130,0.0,2.0,47,0.00,,,0.00,meteohub,2013-01-13 02:12:00,
2013-01-12 19:18:00,2.7,-13.4,30.28,South,174,2.0,2.0,46,0.00,,,0.00,meteohub,2013-01-13 02:18:00,
2013-01-12 19:23:00,1.8,-13.9,30.29,WSW,245,3.0,3.0,47,0.00,,,0.00,meteohub,2013-01-13 02:23:00,
2013-01-12 19:29:00,1.9,-13.2,30.29,SSE,149,1.0,5.0,48,0.00,,,0.00,meteohub,2013-01-13 02:29:00,
2013-01-12 19:34:00,2.1,-13.0,30.29,South,190,3.0,5.0,48,0.00,,,0.00,meteohub,2013-01-13 02:34:00,
2013-01-12 19:40:00,2.5,-12.8,30.29,WNW,288,3.0,5.0,48,0.00,,,0.00,meteohub,2013-01-13 02:40:00,
2013-01-12 19:45:00,1.4,-13.7,30.29,West,274,0.0,5.0,48,0.00,,,0.00,meteohub,2013-01-13 02:45:00,
2013-01-12 19:51:00,1.4,-13.4,30.29,South,183,0.0,5.0,49,0.00,,,0.00,meteohub,2013-01-13 02:51:00,
2013-01-12 19:56:00,1.6,-13.2,30.29,SSW,201,0.0,5.0,49,0.00,,,0.00,meteohub,2013-01-13 02:56:00,
2013-01-12 20:02:00,1.9,-12.8,30.29,SSE,148,1.0,2.0,49,0.00,,,0.00,meteohub,2013-01-13 03:02:00,
2013-01-12 20:07:00,1.9,-12.8,30.29,SE,130,0.0,2.0,49,0.00,,,0.00,meteohub,2013-01-13 03:07:00,
2013-01-12 20:12:00,1.9,-12.8,30.29,SSE,153,1.0,2.0,49,0.00,,,0.00,meteohub,2013-01-13 03:12:00,
2013-01-12 20:17:00,1.8,-13.0,30.30,SSE,159,1.0,2.0,49,0.00,,,0.00,meteohub,2013-01-13 03:17:00,
2013-01-12 20:22:00,1.0,-14.1,30.30,NW,321,1.0,2.0,48,0.00,,,0.00,meteohub,2013-01-13 03:22:00,
2013-01-12 20:27:00,0.9,-13.4,30.30,East,91,1.0,3.0,50,0.00,,,0.00,meteohub,2013-01-13 03:27:00,
2013-01-12 20:32:00,0.3,-13.9,30.30,NW,311,0.0,3.0,50,0.00,,,0.00,meteohub,2013-01-13 03:32:00,
2013-01-12 20:37:00,0.5,-13.4,30.31,WNW,298,0.0,2.0,51,0.00,,,0.00,meteohub,2013-01-13 03:37:00,
2013-01-12 20:42:00,0.7,-13.2,30.31,WNW,294,0.0,2.0,51,0.00,,,0.00,meteohub,2013-01-13 03:42:00,
2013-01-12 20:47:00,0.5,-13.4,30.31,WNW,293,0.0,1.0,51,0.00,,,0.00,meteohub,2013-01-13 03:47:00,
2013-01-12 20:52:00,1.0,-12.8,30.31,SW,232,0.0,1.0,51,0.00,,,0.00,meteohub,2013-01-13 03:52:00,
2013-01-12 20:57:00,1.2,-12.6,30.31,SSE,153,3.0,3.0,51,0.00,,,0.00,meteohub,2013-01-13 03:57:00,
2013-01-12 21:02:00,1.4,-12.5,30.31,SE,136,0.0,3.0,51,0.00,,,0.00,meteohub,2013-01-13 04:02:00,
2013-01-12 21:07:00,1.0,-12.8,30.31,West,273,0.0,3.0,51,0.00,,,0.00,meteohub,2013-01-13 04:07:00,
2013-01-12 21:12:00,0.9,-13.0,30.32,WSW,250,0.0,3.0,51,0.00,,,0.00,meteohub,2013-01-13 04:12:00,
2013-01-12 21:17:00,0.7,-13.2,30.31,WSW,253,0.0,1.0,51,0.00,,,0.00,meteohub,2013-01-13 04:17:00,
2013-01-12 21:22:00,0.7,-12.8,30.32,ESE,102,2.0,2.0,52,0.00,,,0.00,meteohub,2013-01-13 04:22:00,
2013-01-12 21:27:00,0.9,-13.0,30.32,ESE,121,1.0,2.0,51,0.00,,,0.00,meteohub,2013-01-13 04:27:00,
2013-01-12 21:32:00,0.9,-13.0,30.31,SSE,150,1.0,2.0,51,0.00,,,0.00,meteohub,2013-01-13 04:32:00,
2013-01-12 21:37:00,0.5,-13.4,30.32,SE,135,2.0,2.0,51,0.00,,,0.00,meteohub,2013-01-13 04:37:00,
2013-01-12 21:42:00,0.3,-13.2,30.32,SE,133,0.0,2.0,52,0.00,,,0.00,meteohub,2013-01-13 04:42:00,
2013-01-12 21:47:00,0.1,-13.4,30.32,South,179,2.0,2.0,52,0.00,,,0.00,meteohub,2013-01-13 04:47:00,
2013-01-12 21:52:00,-0.2,-13.7,30.32,SW,218,1.0,3.0,52,0.00,,,0.00,meteohub,2013-01-13 04:52:00,
2013-01-12 21:57:00,-0.8,-13.7,30.32,SW,236,1.0,3.0,53,0.00,,,0.00,meteohub,2013-01-13 04:57:00,
2013-01-12 22:01:00,-0.6,-13.2,30.33,SW,228,0.0,3.0,54,0.00,,,0.00,meteohub,2013-01-13 05:01:00,
2013-01-12 22:03:00,-0.6,-13.2,30.33,SW,228,0.0,3.0,54,0.00,,,0.00,meteohub,2013-01-13 05:03:00,
2013-01-12 22:05:00,-0.6,-13.2,30.33,SW,228,0.0,2.0,54,0.00,,,0.00,meteohub,2013-01-13 05:05:00,
2013-01-12 22:11:00,-0.8,-13.4,30.33,WNW,285,0.0,2.0,54,0.00,,,0.00,meteohub,2013-01-13 05:11:00,
2013-01-12 22:16:00,-0.9,-13.2,30.33,West,279,0.0,1.0,55,0.00,,,0.00,meteohub,2013-01-13 05:16:00,
2013-01-12 22:22:00,-0.6,-12.8,30.33,West,276,0.0,1.0,55,0.00,,,0.00,meteohub,2013-01-13 05:22:00,
2013-01-12 22:27:00,-0.6,-12.5,30.33,West,271,0.0,1.0,56,0.00,,,0.00,meteohub,2013-01-13 05:27:00,
2013-01-12 22:32:00,-0.6,-12.8,30.33,WSW,249,0.0,1.0,55,0.00,,,0.00,meteohub,2013-01-13 05:32:00,
2013-01-12 22:37:00,-0.6,-12.8,30.33,South,187,1.0,2.0,55,0.00,,,0.00,meteohub,2013-01-13 05:37:00,
2013-01-12 22:42:00,-0.9,-12.8,30.33,SSW,208,1.0,3.0,56,0.00,,,0.00,meteohub,2013-01-13 05:42:00,
2013-01-12 22:47:00,-1.3,-12.8,30.33,SSE,164,2.0,3.0,57,0.00,,,0.00,meteohub,2013-01-13 05:47:00,
2013-01-12 22:52:00,-1.3,-12.8,30.33,SSE,156,0.0,3.0,57,0.00,,,0.00,meteohub,2013-01-13 05:52:00,
2013-01-12 22:57:00,-1.3,-13.2,30.33,East,101,0.0,3.0,56,0.00,,,0.00,meteohub,2013-01-13 05:57:00,
2013-01-12 23:02:00,-1.5,-13.4,30.33,ESE,102,0.0,3.0,56,0.00,,,0.00,meteohub,2013-01-13 06:02:00,
2013-01-12 23:07:00,-2.0,-13.2,30.33,WSW,242,2.0,2.0,58,0.00,,,0.00,meteohub,2013-01-13 06:07:00,
2013-01-12 23:12:00,-2.2,-13.0,30.34,WSW,248,0.0,3.0,59,0.00,,,0.00,meteohub,2013-01-13 06:12:00,
2013-01-12 23:17:00,-2.0,-13.2,30.34,WSW,241,1.0,3.0,58,0.00,,,0.00,meteohub,2013-01-13 06:17:00,
2013-01-12 23:22:00,-2.0,-12.8,30.34,SW,221,0.0,3.0,59,0.00,,,0.00,meteohub,2013-01-13 06:22:00,
2013-01-12 23:27:00,-2.4,-12.5,30.34,SSE,153,0.0,2.0,61,0.00,,,0.00,meteohub,2013-01-13 06:27:00,
2013-01-12 23:32:00,-2.6,-13.4,30.35,NE,49,3.0,3.0,59,0.00,,,0.00,meteohub,2013-01-13 06:32:00,
2013-01-12 23:37:00,-4.2,-15.9,30.35,WNW,295,2.0,5.0,56,0.00,,,0.00,meteohub,2013-01-13 06:37:00,
2013-01-12 23:42:00,-4.2,-15.2,30.35,WNW,302,0.0,5.0,58,0.00,,,0.00,meteohub,2013-01-13 06:42:00,
2013-01-12 23:47:00,-4.5,-15.5,30.35,WNW,301,1.0,5.0,58,0.00,,,0.00,meteohub,2013-01-13 06:47:00,
2013-01-12 23:52:00,-4.7,-15.3,30.35,NW,304,2.0,4.0,59,0.00,,,0.00,meteohub,2013-01-13 06:52:00,
2013-01-12 23:57:00,-4.7,-15.3,30.35,West,267,3.0,4.0,59,0.00,,,0.00,meteohub,2013-01-13 06:57:00,